Location: Courçay
(47.2523°N, 0.8761°E)
Time: 02:44:58
(UTC+00:00)

SL-16 R/B - Pass Details

Date: 18 November 2025
Orbit: 985 x 1006 km, 99.8° (Epoch: 04 December)

Event Time Altitude Azimuth Distance (km) Brightness Sun altitude
Rises 16:44:51 0° 15° (NNE) 3,746 5.2 -5.0°
Reaches altitude 10° 16:47:20 10° 16° (NNE) 2,792 4.5 -5.4°
Maximum altitude 16:53:39 89° 106° (ESE) 1,011 2.6 -6.3°
Drops below altitude 10° 16:59:53 10° 198° (SSW) 2,764 5.5 -7.3°
Sets 17:02:20 0° 198° (SSW) 3,707 6.1 -7.7°
